Regional Weather Roundup
Issued by NWS

Home | Current Version | Previous Version | Text Only | Print | Product List | Glossary On
Versions: 1 2 3 4 5 6 7 8 9 10 11 12 13 14 15 16 17 18 19 20 21 22 23 24 25 26 27 28 29 30 31 32 33 34 35 36 37 38 39 40 41 42 43 44 45 46 47 48 49 50
000
ASUS43 KBIS 260202
RWRND

NORTH DAKOTA REGIONAL WEATHER ROUNDUP
NATIONAL WEATHER SERVICE BISMARCK ND
900 PM CDT SUN SEP 25 2016

NOTE: "FAIR" INDICATES FEW OR NO CLOUDS BELOW 12,000 FEET WITH NO
SIGNIFICANT WEATHER AND/OR OBSTRUCTIONS TO VISIBILITY.


NDZ001>003-009>011-017-260300-
NORTHWEST NORTH DAKOTA

CITY           SKY/WX    TMP DP  RH WIND       PRES   REMARKS
WILLISTON      CLEAR     53  33  46 NW10      30.19R
MINOT          CLEAR     55  35  47 W16       30.11R
MINOT AFB      CLEAR     52  36  54 NW14      30.10R
$$

NDZ018>021-031>035-040>046-260300-
SOUTHWEST NORTH DAKOTA

CITY           SKY/WX    TMP DP  RH WIND       PRES   REMARKS
BISMARCK       CLEAR     55  35  47 NW12      30.16R
DICKINSON      CLEAR     47  35  63 W9        30.20R
GARRISON         N/A     49  35  58 NW12      30.14R
HETTINGER ARPT CLEAR     42  35  76 W5        30.25R
$$

NDZ004>008-012>016-024-026-027-054-260300-
NORTHEAST NORTH DAKOTA

CITY           SKY/WX    TMP DP  RH WIND       PRES   REMARKS
GRAND FORKS    CLOUDY    56  45  66 NW16G24   29.93R
GRND FRKS AFB  MOCLDY    57  42  57 NW17G29   29.94R
DEVILS LAKE    PTCLDY    54  38  54 NW13      30.03R
$$

NDZ022-023-025-028>030-036>039-047>053-260300-
SOUTHEAST NORTH DAKOTA

CITY           SKY/WX    TMP DP  RH WIND       PRES   REMARKS
FARGO          CLOUDY    55  45  68 W8        29.98R
JAMESTOWN      PTCLDY    55  38  52 NW17      30.05R
$$





USA.gov is the U.S. government's official web portal to all federal, state and local government web resources and services.